STARLINK-35732

Last updated on Fri Dec 19 2025 00:02:09 GMT+0000 (Coordinated Universal Time)

1 67037U 25294H 25351.83335648 -.01317743 51718-3 -32137-2 0 9992 2 67037 42.9999 151.2965 0001794 280.1039 130.3987 15.95339918 2129
UTC large
Height (km)
Speed (km/s)
/
Latitude / Longitude
Inclination (degrees)
Orbital Period (minutes)
Azimuth
Elevation
Range (km)
Doppler Factor

Next 0 passes for location: London (51.5072 / 0.1276)

Sorry there are no passes over London.